Location: Murphys Corner
(39.1062°N, 77.8244°W)
Time: 03:56:37
(UTC+00:00)

Envisat - Visible Passes

Search period start: 19 June 2024 00:00
Search period end: 29 June 2024 00:00
Orbit: 762 x 764 km, 98.3° (Epoch: 18 June)

Date Brightness Start Highest point End Pass type
(mag) Time Alt. Az. Time Alt. Az. Time Alt. Az.
19 Jun 4.0 07:57:34 10° NNE 08:02:23 42° E 08:07:09 10° S visible
20 Jun 5.2 07:21:16 10° NE 07:24:46 19° E 07:28:15 10° SE visible
20 Jun 3.4 08:59:05 10° N 09:03:57 48° WNW 09:08:47 10° SW visible
21 Jun 3.1 08:21:35 10° NNE 08:26:40 75° ESE 08:31:43 10° S visible
22 Jun 4.5 07:44:40 10° NNE 07:49:10 32° E 07:53:40 10° SSE visible
23 Jun 5.5 07:08:59 10° ENE 07:11:29 14° E 07:13:59 10° ESE visible
23 Jun 3.1 08:45:50 10° N 08:50:52 64° WNW 08:55:52 10° SSW visible
24 Jun 3.6 08:08:31 10° NNE 08:13:31 55° E 08:18:26 10° S visible
25 Jun 4.9 07:31:53 10° NE 07:35:57 24° E 07:39:59 10° SSE visible
25 Jun 3.7 09:10:20 10° N 09:14:58 37° WNW 09:19:36 10° SW visible
26 Jun 3.0 08:32:39 10° NNE 08:37:45 85° WNW 08:42:48 10° SSW visible
27 Jun 4.0 07:55:32 10° NNE 08:00:19 41° E 08:05:03 10° SSE visible
28 Jun 5.2 07:19:17 10° NE 07:22:42 18° E 07:26:05 10° SE visible
28 Jun 3.4 08:57:01 10° N 09:01:54 49° WNW 09:06:45 10° SW visible
